Find Starlink 3520

NORAD ID: 51741 Int'l Des: 2022-016 Owner: SPXS Country: US Constellation: starlink operational
LEOCIRCULAR

Live Position

Loading 3D Globe...

About Starlink 3520

Description loading...

Upcoming Passes

Passes for default location (London). Set your location on the main map for personalized predictions.

Altitude History

Loading altitude history...

Two-Line Element Set

1 51741U 22016AD 26126.53587372 -.00000857 00000-0 -35777-4 0 9991
2 51741 53.2182 59.4481 0001383 84.5242 275.5908 15.08841066232295
Epoch: May 6, 2026 • Age: 9 hours

Current Status

Altitude 550.8 km
Velocity 7.59 km/s
Sub-Earth Point -33.03°S, 75.04°E
Launch Date Feb 21, 2022
Age 4.2 years
Type internet

Technical Details

Classification Payload
Mass 297.00 kg
Dry Mass 275.00 kg
Total Mass 297.00 kg
Length 0.20 m
Diameter 2.80 m
Span 9.00 m
Shape Box + pan
Manufacturer SPXS
Bus Type Starlink
Phase Status In Orbit
Owner/State SPXS/US

Most Searched